When you browse on this site, cookies collect data to enhance your experience and personalize the content and advertising you see.
Visit our Privacy Policy to learn more. By continuing to use the site, you agree to this use of cookies and data.

Hourly Weather Tykhonivka

Today, 20 September, Sunday

Time Temperature Precipitation Wind Pressure Humidity
00:00 +10°C° 0 mm 2 mps 745 mmHg 70%
01:00 +9°C° 0 mm 2 mps 745 mmHg 73%
02:00 +9°C° 0 mm 2 mps 745 mmHg 75%
03:00 +8°C° 0 mm 2 mps 745 mmHg 76%
04:00 +8°C° 0 mm 2 mps 745 mmHg 77%
05:00 +7°C° 0 mm 2 mps 745 mmHg 78%
06:00 +9°C° 0 mm 2 mps 745 mmHg 73%
07:00 +12°C° 0 mm 2 mps 746 mmHg 68%
08:00 +12°C° 0 mm 3 mps 746 mmHg 63%
09:00 +16°C° 0 mm 3 mps 746 mmHg 57%
10:00 +18°C° 0 mm 3 mps 746 mmHg 51%
11:00 +20°C° 0 mm 3 mps 746 mmHg 45%
12:00 +20°C° 0 mm 3 mps 746 mmHg 41%
13:00 +21°C° 0 mm 3 mps 746 mmHg 36%
14:00 +22°C° 0 mm 3 mps 746 mmHg 31%
15:00 +21°C° 0 mm 3 mps 746 mmHg 33%
16:00 +20°C° 0 mm 3 mps 746 mmHg 34%
17:00 +20°C° 0 mm 3 mps 746 mmHg 36%
18:00 +17°C° 0 mm 3 mps 746 mmHg 40%
19:00 +14°C° 0 mm 3 mps 746 mmHg 44%
20:00 +13°C° 0 mm 2 mps 746 mmHg 48%
21:00 +13°C° 0 mm 2 mps 746 mmHg 50%
22:00 +12°C° 0 mm 2 mps 747 mmHg 52%
23:00 +10°C° 0 mm 2 mps 747 mmHg 54%

Tomorrow, 21 September, Monday

Time Temperature Precipitation Wind Pressure Humidity
00:00 +10°C° 0 mm 2 mps 747 mmHg 57%
01:00 +9°C° 0 mm 2 mps 747 mmHg 60%
02:00 +9°C° 0 mm 2 mps 747 mmHg 63%
03:00 +8°C° 0 mm 2 mps 747 mmHg 65%
04:00 +9°C° 0 mm 1 mps 747 mmHg 67%
05:00 +9°C° 0 mm 1 mps 747 mmHg 69%
06:00 +11°C° 0 mm 1 mps 747 mmHg 61%
07:00 +12°C° 0 mm 1 mps 747 mmHg 54%
08:00 +14°C° 0 mm 1 mps 748 mmHg 47%
09:00 +18°C° 0 mm 1 mps 748 mmHg 41%
10:00 +18°C° 0 mm 0 mps 748 mmHg 36%
11:00 +20°C° 0 mm 0 mps 748 mmHg 31%
12:00 +21°C° 0 mm 0 mps 747 mmHg 29%
13:00 +21°C° 0 mm 0 mps 747 mmHg 27%
14:00 +22°C° 0 mm 0 mps 747 mmHg 25%
15:00 +21°C° 0 mm 0 mps 746 mmHg 27%
16:00 +20°C° 0 mm 0 mps 746 mmHg 29%
17:00 +20°C° 0 mm 0 mps 746 mmHg 31%
18:00 +20°C° 0 mm 1 mps 746 mmHg 34%
19:00 +18°C° 0 mm 1 mps 746 mmHg 37%
20:00 +14°C° 0 mm 1 mps 746 mmHg 39%
21:00 +14°C° 0 mm 2 mps 746 mmHg 41%
22:00 +13°C° 0 mm 2 mps 746 mmHg 42%
23:00 +13°C° 0 mm 2 mps 746 mmHg 44%

Day after tomorrow, 22 September, Tuesday

Time Temperature Precipitation Wind Pressure Humidity
00:00 +12°C° 0 mm 2 mps 746 mmHg 45%
01:00 +12°C° 0 mm 2 mps 746 mmHg 46%
02:00 +11°C° 0 mm 1 mps 746 mmHg 47%
03:00 +10°C° 0 mm 2 mps 746 mmHg 47%
04:00 +10°C° 0 mm 2 mps 746 mmHg 47%
05:00 +10°C° 0 mm 2 mps 746 mmHg 47%
06:00 +12°C° 0 mm 2 mps 746 mmHg 43%
07:00 +14°C° 0 mm 2 mps 747 mmHg 39%
08:00 +16°C° 0 mm 2 mps 747 mmHg 35%
09:00 +18°C° 0 mm 2 mps 747 mmHg 31%
10:00 +21°C° 0 mm 2 mps 747 mmHg 27%
11:00 +24°C° 0 mm 2 mps 747 mmHg 23%
12:00 +25°C° 0 mm 2 mps 747 mmHg 22%
13:00 +26°C° 0 mm 3 mps 746 mmHg 20%
14:00 +26°C° 0 mm 3 mps 746 mmHg 18%
15:00 +25°C° 0 mm 2 mps 745 mmHg 19%
16:00 +25°C° 0 mm 2 mps 745 mmHg 21%
17:00 +24°C° 0 mm 2 mps 745 mmHg 23%
18:00 +20°C° 0 mm 2 mps 745 mmHg 25%
19:00 +18°C° 0 mm 2 mps 745 mmHg 27%
20:00 +16°C° 0 mm 2 mps 745 mmHg 29%
21:00 +15°C° 0 mm 2 mps 745 mmHg 30%
22:00 +15°C° 0 mm 2 mps 744 mmHg 32%
23:00 +14°C° 0 mm 2 mps 744 mmHg 33%

23 September, Wednesday

Time Temperature Precipitation Wind Pressure Humidity
00:00 +13°C° 0 mm 2 mps 744 mmHg 34%
01:00 +13°C° 0 mm 2 mps 744 mmHg 35%
02:00 +12°C° 0 mm 2 mps 744 mmHg 36%
03:00 +12°C° 0 mm 2 mps 744 mmHg 36%
04:00 +12°C° 0 mm 2 mps 744 mmHg 37%
05:00 +10°C° 0 mm 2 mps 744 mmHg 37%
06:00 +13°C° 0 mm 2 mps 744 mmHg 34%
07:00 +14°C° 0 mm 3 mps 744 mmHg 31%
08:00 +17°C° 0 mm 3 mps 744 mmHg 28%
09:00 +19°C° 0 mm 3 mps 744 mmHg 25%
10:00 +22°C° 0 mm 4 mps 744 mmHg 21%
11:00 +25°C° 0 mm 5 mps 744 mmHg 17%
12:00 +26°C° 0 mm 5 mps 743 mmHg 18%
13:00 +27°C° 0 mm 5 mps 743 mmHg 19%
14:00 +27°C° 0 mm 5 mps 742 mmHg 21%
15:00 +26°C° 0 mm 4 mps 742 mmHg 23%
16:00 +26°C° 0 mm 3 mps 741 mmHg 25%
17:00 +25°C° 0 mm 2 mps 741 mmHg 27%
18:00 +23°C° 0 mm 2 mps 741 mmHg 28%
19:00 +20°C° 0 mm 2 mps 741 mmHg 30%
20:00 +18°C° 0 mm 2 mps 741 mmHg 31%
21:00 +17°C° 0 mm 2 mps 741 mmHg 33%
22:00 +17°C° 0 mm 2 mps 741 mmHg 35%
23:00 +16°C° 0 mm 2 mps 741 mmHg 36%

24 September, Thursday

Time Temperature Precipitation Wind Pressure Humidity
00:00 +16°C° 0 mm 2 mps 741 mmHg 39%
01:00 +15°C° 0 mm 2 mps 741 mmHg 41%
02:00 +15°C° 0 mm 2 mps 741 mmHg 44%
03:00 +15°C° 0 mm 2 mps 740 mmHg 50%
04:00 +14°C° 0 mm 2 mps 740 mmHg 57%
05:00 +14°C° 0 mm 2 mps 740 mmHg 63%
06:00 +15°C° 0 mm 2 mps 740 mmHg 60%
07:00 +17°C° 0 mm 2 mps 741 mmHg 57%
08:00 +18°C° 0 mm 3 mps 741 mmHg 54%
09:00 +20°C° 0 mm 3 mps 741 mmHg 46%
10:00 +22°C° 0 mm 3 mps 741 mmHg 38%
11:00 +26°C° 0 mm 3 mps 741 mmHg 29%
12:00 +26°C° 0 mm 3 mps 741 mmHg 28%
13:00 +27°C° 0 mm 3 mps 740 mmHg 27%
14:00 +28°C° 0 mm 3 mps 740 mmHg 26%
15:00 +27°C° 0 mm 3 mps 740 mmHg 28%
16:00 +26°C° 0 mm 2 mps 740 mmHg 31%
17:00 +25°C° 0 mm 1 mps 740 mmHg 33%
18:00 +23°C° 0 mm 1 mps 740 mmHg 37%
19:00 +22°C° 0 mm 1 mps 740 mmHg 42%
20:00 +20°C° 0 mm 1 mps 740 mmHg 46%
21:00 +18°C° 0 mm 2 mps 740 mmHg 48%
22:00 +18°C° 0 mm 2 mps 740 mmHg 49%
23:00 +17°C° 0 mm 2 mps 740 mmHg 51%

25 September, Friday

Time Temperature Precipitation Wind Pressure Humidity
00:00 +17°C° 0 mm 2 mps 740 mmHg 53%
01:00 +18°C° 0 mm 1 mps 740 mmHg 54%
02:00 +16°C° 0 mm 1 mps 740 mmHg 56%
03:00 +16°C° 0 mm 1 mps 740 mmHg 58%
04:00 +16°C° 0 mm 1 mps 740 mmHg 60%
05:00 +15°C° 0 mm 1 mps 740 mmHg 61%
06:00 +18°C° 0 mm 1 mps 740 mmHg 56%
07:00 +19°C° 0 mm 2 mps 740 mmHg 51%
08:00 +20°C° 0 mm 2 mps 740 mmHg 46%
09:00 +23°C° 0 mm 2 mps 739 mmHg 40%
10:00 +26°C° 0 mm 3 mps 739 mmHg 34%
11:00 +28°C° 0 mm 4 mps 739 mmHg 28%
12:00 +29°C° 0 mm 4 mps 738 mmHg 26%
13:00 +29°C° 0 mm 3 mps 738 mmHg 25%
14:00 +30°C° 0 mm 3 mps 737 mmHg 24%
15:00 +29°C° 0 mm 3 mps 737 mmHg 25%
16:00 +28°C° 0 mm 3 mps 736 mmHg 27%
17:00 +27°C° 0 mm 2 mps 736 mmHg 29%
18:00 +25°C° 0 mm 2 mps 736 mmHg 34%
19:00 +22°C° 0 mm 3 mps 736 mmHg 38%
20:00 +20°C° 0 mm 3 mps 735 mmHg 43%
21:00 +19°C° 0 mm 3 mps 735 mmHg 46%
22:00 +18°C° 0 mm 3 mps 735 mmHg 50%
23:00 +18°C° 0 mm 3 mps 735 mmHg 53%
Show more